{"data":{"norad_id":56296,"intl_designator":"2023-056L","name":"STARLINK-30089","alt_names":[],"object_type":"PAYLOAD","status":"ACTIVE","operator":null,"country":"US","launch_date":"2023-04-19","launch_site_code":"AFETR","launch_vehicle":null,"mission":null,"orbit_class":"UNKNOWN","rcs_meters":null,"size_class":null,"mass_kg":null,"dimensions":null,"purposes":["comms"],"wikipedia_slug":null,"has_3d_model":false,"image_url":null,"decayed_at":null,"tle_current":{"epoch":"2026-09-20T23:29:15.792000Z","epoch_age_seconds":67418,"freshness":"FRESH","line1":"1 56296U 23056L   26263.97865500  .00000495  00000+0  27499-4 0  9995","line2":"2 56296  43.0024 146.2498 0001377 261.2965  98.7731 15.27575030190365","mean_motion":15.2757503,"eccentricity":0.0001377,"inclination_deg":43.0024,"raan_deg":146.2498,"arg_perigee_deg":261.2965,"mean_anomaly_deg":98.7731,"bstar":2.7499e-5,"rev_number":19036,"period_min":94.267055412656,"perigee_km":482.11919067327,"apogee_km":484.00876542263,"semimajor_km":6861.200978048,"source":"CELESTRAK","updated_at":"2026-09-21T09:00:33.393070Z"}}}